EW5800 Weather Reports


Display with metric or nautical units.
time (UTC)temp
F
wind
direction
speed
MPH
gust
MPH
rain 1hr
in
rain 24hr
in
rain mn
in
humidity
%
barometer
mb
20260902200033 67 297 0.0 2.0 0.00 0.01 0.01 71 1002.7
20260902194531 68 82 0.0 3.0 0.00 0.01 0.01 61 1002.8
20260902193029 67 64 0.0 1.0 0.00 0.01 0.01 62 1003.1
20260902191527 68 195 0.0 4.0 0.00 0.01 0.01 62 1003.2
20260902190027 68 110 0.0 4.0 0.00 0.01 0.01 61 1003.4
20260902184522 67 91 0.0 3.0 0.00 0.01 0.01 63 1003.5
20260902183022 67 95 1.0 6.0 0.00 0.01 0.01 64 1003.8
20260902181520 67 28 1.0 6.0 0.00 0.01 0.01 65 1003.9
20260902180018 67 70 1.0 7.0 0.00 0.01 0.01 66 1003.9
20260902174516 66 237 1.0 7.0 0.00 0.01 0.01 67 1004.1
20260902173012 66 212 1.0 6.0 0.00 0.01 0.01 70 1004.2
20260902171510 65 150 0.0 5.0 0.00 0.01 0.01 73 1004.3
20260902170010 65 136 0.0 4.0 0.00 0.01 0.01 72 1004.3
20260902164513 65 206 0.0 6.0 0.00 0.01 0.01 72 1004.3
20260902163009 65 61 1.0 8.0 0.00 0.01 0.01 72 1004.2
20260902161505 64 53 0.0 4.0 0.00 0.01 0.01 76 1004.3
20260902160003 64 56 0.0 4.0 0.00 0.01 0.01 74 1004.5
20260902154610 63 47 1.0 5.0 0.00 0.01 0.01 74 1004.7
20260902153059 63 65 1.0 12.0 0.00 0.01 0.01 75 1004.7
20260902151557 63 57 1.0 4.0 0.00 0.01 0.01 77 1004.8
20260902150055 62 62 0.0 9.0 0.00 0.01 0.01 78 1004.9
20260902144553 62 74 0.0 2.0 0.00 0.01 0.01 81 1005.1
20260902143055 62 61 0.0 2.0 0.01 0.01 0.01 80 1005.1
20260902141554 61 169 0.0 7.0 0.01 0.01 0.01 81 1005.0
20260902140053 61 173 0.0 5.0 0.01 0.01 0.01 83 1005.1
20260902134555 62 100 0.0 4.0 0.01 0.01 0.01 82 1005.2
20260902133051 61 98 0.0 5.0 0.00 0.00 0.00 83 1005.1
20260902131550 61 56 0.0 1.0 0.00 0.00 0.00 86 1005.0
20260902130048 61 52 0.0 0.0 0.00 0.00 0.00 86 1005.0
20260902124546 61 51 0.0 3.0 0.00 0.00 0.00 82 1005.2
20260902123045 61 60 0.0 2.0 0.00 0.00 0.00 84 1005.2
20260902121544 61 62 0.0 0.0 0.00 0.00 0.00 86 1005.3
20260902120043 61 203 0.0 2.0 0.00 0.00 0.00 86 1005.5
20260902114609 60 64 0.0 2.0 0.00 0.00 0.00 88 1005.6
20260902113041 60 342 0.0 1.0 0.00 0.00 0.00 88 1005.8
20260902111537 61 52 0.0 0.0 0.00 0.00 0.00 86 1006.0
20260902110038 61 58 0.0 3.0 0.00 0.00 0.00 85 1006.1
20260902104536 60 67 0.0 0.0 0.00 0.00 0.00 88 1006.3
20260902103033 60 159 0.0 0.0 0.00 0.00 0.00 88 1006.4
20260902101533 60 220 0.0 5.0 0.00 0.00 0.00 88 1006.5
20260902100031 60 77 0.0 4.0 0.00 0.00 0.00 89 1006.5
20260902094530 61 68 0.0 1.0 0.00 0.00 0.00 88 1006.6
20260902093028 61 70 0.0 3.0 0.00 0.00 0.00 89 1006.6
20260902091525 61 136 0.0 3.0 0.00 0.00 0.00 88 1006.8
20260902090028 62 193 0.0 3.0 0.00 0.00 0.00 87 1006.9
20260902084524 63 187 0.0 0.0 0.00 0.00 0.00 85 1006.9
20260902083029 62 115 0.0 1.0 0.00 0.00 0.00 86 1006.9
20260902081523 62 68 0.0 2.0 0.00 0.00 0.00 87 1006.8
20260902080021 62 339 0.0 1.0 0.00 0.00 0.00 88 1006.9
20260902074525 62 58 0.0 1.0 0.00 0.00 0.00 88 1006.9
20260902073022 62 68 0.0 2.0 0.00 0.00 0.00 88 1007.0
20260902071518 62 63 0.0 2.0 0.00 0.00 0.00 87 1007.0
20260902070015 62 63 0.0 3.0 0.00 0.00 0.00 87 1007.0
20260902064517 62 54 0.0 1.0 0.00 0.00 0.00 85 1007.1
20260902063014 63 65 0.0 1.0 0.00 0.00 0.00 84 1007.2
20260902061520 63 102 0.0 1.0 0.00 0.00 0.00 83 1007.2
20260902060013 64 53 0.0 3.0 0.00 0.00 0.00 81 1007.3
20260902054512 64 354 0.0 0.0 0.00 0.00 0.00 79 1007.5
20260902053012 64 56 0.0 0.0 0.00 0.00 0.00 78 1007.4
20260902051513 64 63 0.0 3.0 0.00 0.00 0.00 77 1007.4
20260902050020 65 55 0.0 2.0 0.00 0.00 0.00 75 1007.3
20260902044511 65 60 0.0 3.0 0.00 0.00 0.00 74 1007.4
20260902043013 66 62 0.0 2.0 0.00 0.00 0.00 71 1007.4
20260902041519 66 158 0.0 0.0 0.00 0.00 0.00 70 1007.5
20260902040008 66 84 0.0 2.0 0.00 0.00 0.00 69 1007.4
20260902034508 66 50 0.0 4.0 0.00 0.00 0.00 68 1007.1
20260902033009 66 46 0.0 3.0 0.00 0.00 0.00 68 1007.1
20260902031507 66 42 0.0 6.0 0.00 0.00 0.00 68 1007.1
20260902030006 66 74 0.0 3.0 0.00 0.00 0.00 69 1007.1
20260902024506 66 66 0.0 6.0 0.00 0.00 0.00 70 1007.0
20260902023005 67 67 0.0 4.0 0.00 0.00 0.00 69 1007.1
20260902021513 67 46 1.0 4.0 0.00 0.00 0.00 66 1007.2
20260902020004 67 190 0.0 2.0 0.00 0.00 0.00 66 1007.3
20260902014503 67 208 0.0 2.0 0.00 0.00 0.00 65 1007.2
20260902013004 68 169 0.0 3.0 0.00 0.00 0.00 65 1007.3
20260902011503 68 209 0.0 2.0 0.00 0.00 0.00 64 1007.2
20260902010005 68 153 0.0 4.0 0.00 0.00 0.00 64 1007.2
20260902004502 69 34 0.0 4.0 0.00 0.00 0.00 64 1007.0
20260902003001 68 83 1.0 4.0 0.00 0.00 0.00 64 1007.0
20260902001608 68 63 1.0 5.0 0.00 0.00 0.00 64 1007.1
20260902000129 69 79 0.0 3.0 0.00 0.00 0.00 66 1007.1
20260901234606 69 203 0.0 4.0 0.00 0.00 0.00 65 1007.1
20260901233107 69 225 0.0 3.0 0.00 0.00 0.00 66 1006.9
20260901231603 69 127 0.0 3.0 0.00 0.00 0.00 67 1006.9
20260901224556 70 92 0.0 5.0 0.00 0.00 0.00 67 1007.0
20260901223054 70 122 0.0 6.0 0.00 0.00 0.00 66 1007.0
20260901221554 71 107 0.0 4.0 0.00 0.00 0.00 65 1007.2
20260901220053 71 207 0.0 8.0 0.00 0.00 0.00 64 1007.2
20260901214604 73 294 0.0 8.0 0.00 0.00 0.00 60 1007.3
20260901213134 74 115 1.0 4.0 0.00 0.00 0.00 59 1007.2
20260901211551 74 197 1.0 4.0 0.00 0.00 0.00 59 1007.2
20260901210050 74 242 1.0 6.0 0.00 0.00 0.00 55 1007.2
20260901204550 75 186 1.0 5.0 0.00 0.00 0.00 55 1007.2
20260901203115 75 124 0.0 3.0 0.00 0.00 0.00 55 1007.2
20260901201556 76 141 0.0 3.0 0.00 0.00 0.00 54 1007.3